Showing default

QIANFAN-56, 62786

Orbit data source: Space-Track

QIANFAN-56, 62786 is a Chinese payload satellite in LEO that was launched on Thu, 23 Jan 2025 UTC via a CHANG ZHENG 6A launch vehicle from the Taiyaun Space Center, China (TSC). Payload-class satellites include a variety of spacecraft equipped with specific instruments for various scientific and technological missions. These include communications satellites like Starlink; space stations such as the ISS; scientific satellites like the Hubble; Earth observation satellites from companies like Planet Labs, Umbra, and HawkEye 360; GPS; miniature CubeSats for education and research; and military/defense satellites.

Loading next visibility...
Identifier
62786, 2025-016B
Orbit
LEO
Country
Flag of CNCN / PRC
Related business
Manufacturer
SECM
Mission
Operational Commercial Communications
Bus & Motor
QIANFAN, Unknown motor
Mass
267 kg wet, ~267 kg dry
Launch date (UTC)
2025-01-23 (10 months ago)
Launch vehicle
CHANG ZHENG 6A
Launch site
Taiyaun Space Center, China (TSC)
Object type
Payload
Rocket body
Debris
Shape & HBR
Box + 1 Pan, 1.1 m
Radar Cross Section
13.200 m², Large (>1 m²)

Expand to show TLE details & history
Last TLE update: 14 hours ago

TLE from 14 hours ago
0 QIANFAN-56
1 62786U 25016B   25341.23742445  .00000184  00000-0  26686-3 0  9993
2 62786  88.9750 103.6149 0015806  12.7776 347.3772 13.50976616 46492
Epoch: 2025-12-07T05:41Z
TLE epoch observation values (Epoch: 2025-12-07T05:41:53.472Z)
Latitude
-0.00008°
Longitude
-58.11159°
Altitude
1,060.133 km
Speed
7.327 km/s
True Right ascension
06h 54m 27s
True Declination
0° 00' 00"
Sunlit
Object was in full shadow at epoch
Visualization orbit readout
Latitude
Unknown
Longitude
Unknown
Altitude
Unknown
Speed
Unknown
Apparent Right ascension
Unknown
Apparent Declination
Unknown
Sunlit
N/A
Visualization observer readout
Local Sidereal Time
17:55:54
Azimuth
Unknown
Elevation
Unknown
Doppler factor
Unknown
Orbital elements
Apogee altitude
1,077.484 km
Perigee altitude
1,053.953 km
Semi-major axis
7,443.856 km
Eccentricity
0.00158
Inclination
88.975°
RAAN
103.6149°
Arg. of periapsis
12.7776°
True anomaly
347.33754°
Mean anomaly
347.3772°
Eccentric anomaly
347.35738°
Mean motion
3.37945 °/min
Orbital period
106.53 mins
BSTAR
0.00026686
Loading maneuver chart data...
Computing Atmospheric mass density...
Loading historical data...
Loading historical data...
Loading historical data...
Loading historical data...
Loading historical data...
Loading historical data...
Loading historical data...

Documentation

Showing up to 5 results
|